Starlink 32845

operational
NORAD ID: 62815 Int'l Des: 2025-018 Owner: SPXS Country: US Constellation: starlink
LEOCIRCULAR

Starlink 32845について

説明を読み込み中...

リアルタイム位置

3D地球を読み込み中...

次回通過

高度履歴

Altitude vs Time

uPlot chart will show altitude changes over time

軌道要素

1 62815U 25018K 25350.23125635 .00027521 00000-0 93759-3 0 9993
2 62815 53.1621 337.0332 0001471 86.8855 273.2315 15.30209669 50397
Epoch: Dec 16, 2025 • Age: 20 hours

現在のステータス

高度 483.9 km
速度 7.62 km/s
衛星直下点 -27.86°S, 162.62°W
打ち上げ日 Jan 24, 2025
運用期間 0.8 years
タイプ internet

技術仕様

分類 Payload
質量 730.00 kg
乾燥質量 700.00 kg
総質量 730.00 kg
長さ 0.30 m
直径 4.10 m
スパン 29.00 m
形状 Box + pan
製造者 SPXS
バスタイプ Starlink V2M
フェーズステータス In Orbit
所有者/国 SPXS/US

大規模コンステレーション

Loading constellations...